Printer-friendly version

IAU Minor Planet Center

Minor Planet Center

MPEC 2002-U03 : 2002 TS190

The following Minor Planet Electronic Circular may be linked-to from your own Web pages, but must not otherwise be redistributed electronically.


Read MPEC 2002-U02 Read MPEC 2002-U04


M.P.E.C. 2002-U03                                Issued 2002 Oct. 16, 13:52 UT

     The Minor Planet Electronic Circulars contain information on unusual
         minor planets and routine data on comets.  They are published
   on behalf of Commission 20 of the International Astronomical Union by the
          Minor Planet Center, Smithsonian Astrophysical Observatory,
                          Cambridge, MA 02138, U.S.A.

             Prepared using the Tamkin Foundation Computer Network

                              MPC@CFA.HARVARD.EDU
          URL http://cfa-www.harvard.edu/iau/mpc.html  ISSN 1523-6714

                                  2002 TS190

Observations:
     K02TJ0S* C2002 10 13.26849 00 47 29.84 +41 22 00.9          20.5        644
     K02TJ0S  C2002 10 13.28966 00 47 25.00 +41 22 22.5          19.6        644
     K02TJ0S  C2002 10 13.31071 00 47 20.15 +41 22 45.0          20.3        644
     K02TJ0S  C2002 10 14.10598 00 44 22.05 +41 36 12.0                      649
     K02TJ0S  C2002 10 14.11082 00 44 20.91 +41 36 16.7                      649
     K02TJ0S  C2002 10 14.11565 00 44 19.79 +41 36 22.4                      649
     K02TJ0S 4C2002 10 14.21979 00 43 56.19 +41 38 07.0                      673
     K02TJ0S 4C2002 10 14.23287 00 43 53.25 +41 38 20.4                      673
     K02TJ0S 4C2002 10 14.23715 00 43 52.26 +41 38 24.9                      673
     K02TJ0S 1C2002 10 14.26507 00 43 45.97 +41 38 48.9                      658
     K02TJ0S 1C2002 10 14.26750 00 43 45.40 +41 38 51.6                      658
     K02TJ0S 1C2002 10 14.27084 00 43 44.66 +41 38 54.5                      658
     K02TJ0S  C2002 10 15.10455 00 40 37.42 +41 52 13.3          20.0 R      649
     K02TJ0S  C2002 10 15.11034 00 40 36.16 +41 52 18.8          19.8 R      649
     K02TJ0S  C2002 10 15.11613 00 40 34.84 +41 52 24.5          19.7 R      649
     K02TJ0S  C2002 10 16.09713 00 36 54.50 +42 07 07.6          19.8 R      649
     K02TJ0S  C2002 10 16.10293 00 36 53.20 +42 07 12.3          20.1 R      649
     K02TJ0S  C2002 10 16.10873 00 36 51.90 +42 07 17.5          19.4 R      649

Observer details:
644 Palomar Mountain/NEAT.  Observers E. F. Helin, S. Pravdo, K. Lawrence,
    M. Hicks, R. Thicksten.  1.2-m Schmidt + CCD.
649 Powell Observatory, Louisburg.  Observers K. Smalley, M. Glaze.  0.75-m
    Newtonian + CCD.
658 National Research Council of Canada.  Observer G. B. Poole.  Measurer
    D. D. Balam.  1.82-m Plaskett reflector + CCD.
673 Table Mountain Observatory, Wrightwood.  Observer D. Young.  Measurer
    M. Hicks.  0.6-m reflector + CCD.

Orbital elements:
2002 TS190
Epoch 2002 Oct. 13.0 TT = JDT 2452560.5                 MPC
M  59.58895              (2000.0)            P               Q
n   0.38382397     Peri.  317.37221     +0.79476915     +0.59770654
a   1.8752017      Node     8.28927     -0.12586731     +0.33206212
e   0.0482100      Incl.   46.92071     -0.59371661     +0.72971339
P   2.57           H   17.8           G   0.15
From 18 observations 2002 Oct. 13-16.

Ephemeris:
2002 TS190               a,e,i = 1.88, 0.05, 47                  q = 1.7848
Date    TT    R. A. (2000) Decl.     Delta      r     Elong.  Phase     V
2002 10 13    00 48.50   +41 17.3    0.919    1.833   145.9    17.8    19.9
2002 10 23    00 11.70   +43 23.2    0.952    1.838   141.6    19.7    20.0
2002 11 02    23 40.02   +44 00.5    1.012    1.844   133.9    22.8    20.2
2002 11 12    23 17.06   +43 44.4    1.093    1.850   125.2    25.9    20.5
2002 11 22    23 03.23   +43 10.5    1.187    1.856   116.9    28.3    20.8
2002 12 02    22 57.21   +42 41.5    1.288    1.862   109.2    30.0    21.0
2002 12 12    22 57.48   +42 29.3    1.393    1.868   102.2    31.0    21.2
2002 12 22    23 02.68   +42 38.7    1.496    1.874    95.9    31.5    21.4
2003 01 01    23 11.80   +43 09.9    1.597    1.880    90.3    31.5    21.5
2003 01 11    23 24.25   +44 02.1    1.693    1.886    85.2    31.3    21.7
2003 01 21    23 39.59   +45 13.2    1.783    1.892    80.7    30.9    21.8

Timothy B. Spahr             (C) Copyright 2002 MPC           M.P.E.C. 2002-U03

Read MPEC 2002-U02 Read MPEC 2002-U04


Our Web policy. Index to the CBAT/MPC/ICQ pages.


Valid HTML 4.01!